Regional Weather Roundup
Issued by NWS

Home | Current Version | Previous Version | Text Only | Print | Product List | Glossary Off
Versions: 1 2 3 4 5 6 7 8 9 10 11 12 13 14 15 16 17 18 19 20 21 22 23 24 25 26 27 28 29 30 31 32 33 34 35 36 37 38 39 40 41 42 43 44 45 46 47 48 49 50

000
ASUS43 KLOT 301508
RWRIL

ILLINOIS REGIONAL WEATHER ROUNDUP
NATIONAL WEATHER SERVICE CHICAGO/ROMEOVILLE IL
1000 AM CDT TUE JUN 30 2015

NOTE: "FAIR" INDICATES FEW OR NO CLOUDS BELOW 12,000 FEET WITH NO
SIGNIFICANT WEATHER AND/OR OBSTRUCTIONS TO VISIBILITY.

* THESE STATIONS ARE NOT UNDER NWS QUALITY CONTROL. THEY ALSO MAY NOT
  REPORT WEATHER SUCH AS PRECIPITATION OR FOG.

ILZ001-002-007-009-015-016-024-301600-
NORTHWEST ILLINOIS

CITY           SKY/WX    TMP DP  RH WIND       PRES   REMARKS
MOLINE         SUNNY     74  60  61 N8        29.86S
STERLING*      SUNNY     73  63  68 N5        29.86S
SAVANNA*       SUNNY     70  62  74 W5        29.86S
$$

ILZ003-004-008-010-011-017-018-301600-
NORTH CENTRAL ILLINOIS

CITY           SKY/WX    TMP DP  RH WIND       PRES   REMARKS
ROCKFORD       MOSUNNY   69  61  75 NW5       29.86S
FREEPORT*      MOSUNNY   66  62  87 NW5       29.87F
ROCHELLE*      SUNNY     67  61  80 NW5       29.86S
DE KALB*       SUNNY     66  60  81 NW6       29.85F
PERU*          PTSUNNY   69  61  75 NW5       29.86S
$$

ILZ005-006-012>014-019>023-301600-
NORTHEAST ILLINOIS

CITY           SKY/WX    TMP DP  RH WIND       PRES   REMARKS
CHICAGO-OHARE  MOSUNNY   69  60  73 W7        29.81F
CHICAGO-MIDWAY SUNNY     72  60  66 NW9       29.81F
AURORA         SUNNY     69  61  75 W8        29.84S
LANSING*       SUNNY     71  59  65 NW6       29.82F
JOLIET*        SUNNY     71  63  77 W7        29.83F
WAUKEGAN       MOSUNNY   69  60  73 VRB6      29.80F
DUPAGE AIRPORT SUNNY     69  61  75 NW9       29.83S
KANKAKEE*      SUNNY     71  63  77 W8        29.84S
WHEELING       SUNNY     71  60  68 W9        29.82F
MORRIS*        SUNNY     70  63  80 W7        29.83S
ROMEOVILLE*    SUNNY     69  62  78 NW6       29.83S
NORTHERLY ISL    N/A     70  58  65 W7          N/A
$$

LMZ740>746-301600-
SOUTHERN LAKE MICHIGAN

STATION/POSITION SKY/WX   TEMP    WIND        PRES    VSBY  WAVE
                          AIR SEA DIR/SP/G                  HT/PER
                          (F)     (DEG/KT/KT) (MB)    (MI)  (FT/S)
HARRISON CRIB              66     290/  6/  7   N/A
BURNHAM HARBOR             71     310/  7/  9   N/A
CALUMET HARBOR             70     300/  4/  7   N/A
BURNS HARBOR               65     260/  6/  8 1010.5R
MICHIGAN CITY              63     250/  9/ 10   N/A
MICHIGAN CITY 6N           64 65  290/  8/ 10   N/A           1
ST. JOSEPH                 63 63                N/A           1
$$

ILZ025>027-034>036-040-047-049-050-058-095>099-301600-
WEST-CENTRAL ILLINOIS

CITY           SKY/WX    TMP DP  RH WIND       PRES   REMARKS
QUINCY         SUNNY     75  65  70 W9        29.89S
GALESBURG*     SUNNY     73  65  76 N3        29.87S
MACOMB*        SUNNY     73  67  84 NW6       29.89S
JACKSONVILLE*  SUNNY     76  68  76 W8        29.88S
PITTSFIELD*    SUNNY     74  66  75 W7        29.90F
$$

ILZ028>032-037-038-041>044-048-051>054-059>061-301600-
CENTRAL ILLINOIS

CITY           SKY/WX    TMP DP  RH WIND       PRES   REMARKS
PONTIAC        SUNNY     72  66  81 NW6       29.86S
BLOOMINGTON    SUNNY     74  65  73 NW8       29.87F
DECATUR        SUNNY     75  67  76 W7        29.87S
PEORIA         SUNNY     76  60  57 NW6       29.86F
LACON*         SUNNY     71  61  70 NW6       29.85S
LINCOLN*       SUNNY     76  67  74 W5        29.87S
SPRINGFIELD    MOSUNNY   76  68  76 W9        29.87S
TAYLORVILLE    SUNNY     73  68  83 W7        29.88S
$$

ILZ033-039-045-046-055>057-062-063-301600-
EAST-CENTRAL ILLINOIS

CITY           SKY/WX    TMP DP  RH WIND       PRES   REMARKS
CHAMPAIGN      SUNNY     74  68  81 W7        29.86S
DANVILLE*      SUNNY     73  64  74 W10       29.83S
RANTOUL*       SUNNY     75  67  76 W8        29.85F
MATTOON        SUNNY     75  68  78 W7        29.86S
PARIS*         MOSUNNY   74  68  81 W6        29.87S
$$

ILZ079-100>102-301600-
SOUTHWEST ILLINOIS

CITY           SKY/WX    TMP DP  RH WIND       PRES   REMARKS
BELLEVILLE     MOSUNNY   77  71  80 W7        29.89S
CAHOKIA*       SUNNY     76  68  76 W6        29.91R
SPARTA*        SUNNY     76  68  76 W6        29.93R
$$

ILZ064>066-069>071-074>076-080>082-084>086-088>090-092>094-301600-
SOUTH-CENTRAL ILLINOIS

CITY           SKY/WX    TMP DP  RH WIND       PRES   REMARKS
CARBONDALE     SUNNY     77  69  76 VRB5      29.91S
CAIRO*         SUNNY     77  69  76 W7        29.92R
EFFINGHAM*     SUNNY     78  65  64 SW8       29.89F
MARION         CLOUDY    77  70  78 W8        29.92S
MT. VERNON     SUNNY     77  66  69 W3        29.91S
CENTRALIA*     SUNNY     77  67  71 W7        29.90S
SALEM*         SUNNY     78  69  73 W6        29.90S HX  80
METROPOLIS*    SUNNY     78  71  79 W7        29.93R HX  80
$$

ILZ067-068-072-073-078-083-087-091-301600-
SOUTHEAST ILLINOIS

CITY           SKY/WX    TMP DP  RH WIND       PRES   REMARKS
LAWRENCEVILLE  MOSUNNY   78  69  73 W7        29.88S HX  80
FLORA*         MOSUNNY   78  67  69 W7        29.89S HX  80
FAIRFIELD*     SUNNY     78  70  76 W3        29.88S
HARRISBURG*    SUNNY     76  71  83 W8        29.91S
ROBINSON*      MOSUNNY   76  68  74 W7        29.87F
CARMI*         SUNNY     78  64  63 SW5       29.89S
$$

ABBREVIATIONS USED IN REMARKS
   TC - TEMPERATURE IN CELSIUS
  WCI - WIND CHILL INDEX
   HX - HEAT INDEX
  VSB - VISIBILITY
$$



USA.gov is the U.S. government's official web portal to all federal, state and local government web resources and services.